Content
SEND FEEDBACK

Daily
Averages
Monthly
Summary
United States of America

TASCOSA, TEXAS


Home > North America > United States > Texas
Elevation: 3189 feet     Latitude: 35 31N     Longitude: 102 15W

WEATHER
 
SELECT A DAY
Number of Records: 247,511;   Date Range: 6/2/04 - 10/23/14
 
SHARE

PRINT THIS DATA

[ ← Previous Day ]
WEATHER ALMANAC - JANUARY 31, 2013
[ Next Day → ]
[ °C ]   °F
Weather ElementAverageHighLow
Temperature37.5 °F55.4 °F (12:35 pm)26.6 °F (6:15 am)
Dewpoint19.3 °F23 °F (8:55 pm)12.2 °F (12:15 pm)
Humidity51.7 %80 % (11:15 pm)18 % (12:35 pm)
Barometer30.10 in30.22 in (10:55 pm)29.98 in (2:55 am)
Wind Speed12.5 mph18.4 mph (2:35 pm)
Wind Gust26.5 mph (2:35 pm)
Weather ElementAverage
Visibility10 mi
Wind DirectionSSW (189.9 °)

Weather ElementTotal
Precipitation---
Heating Degree Days24 (Base 65)
Averaged from 71 records on January 31, 2013
WEATHER CONDITIONS BREAKOUT
WIND DIRECTION BREAKOUT
WEATHER BY HOUR - JANUARY 31, 2013
[ °C ]   °F
Local TimeTemperatureDewpointHumidityBarometerVisibilityWind DirectionWind SpeedGust SpeedPrecipitationEventsConditions
12:35 AM28.4 °F19.4 °F69 %29.99 in10.0 miWest (270°)10.4 mphClear
12:55 AM28.4 °F19.4 °F69 %30.00 in10.0 miWSW (240°)11.5 mphClear
1:15 AM28.4 °F19.4 °F69 %30.00 in10.0 miWSW (250°)10.4 mphClear
1:35 AM28.4 °F19.4 °F69 %29.99 in10.0 miWest (260°)12.7 mphClear
1:55 AM28.4 °F19.4 °F69 %29.99 in10.0 miWest (260°)11.5 mphClear
2:15 AM28.4 °F17.6 °F64 %29.99 in10.0 miWest (260°)12.7 mphClear
2:35 AM28.4 °F17.6 °F64 %29.99 in10.0 miWest (270°)16.1 mphClear
2:55 AM30.2 °F17.6 °F60 %29.98 in10.0 miWest (280°)12.7 mphClear
3:15 AM28.4 °F17.6 °F64 %29.98 in10.0 miWest (270°)12.7 mphClear
3:35 AM28.4 °F17.6 °F64 %29.99 in10.0 miWest (270°)11.5 mphClear
3:55 AM28.4 °F17.6 °F64 %30.00 in10.0 miWest (270°)12.7 mphClear
4:15 AM28.4 °F17.6 °F64 %30.00 in10.0 miWest (260°)11.5 mphClear
4:35 AM28.4 °F17.6 °F64 %29.99 in10.0 miWest (270°)11.5 mphClear
4:55 AM28.4 °F17.6 °F64 %29.99 in10.0 miWest (270°)12.7 mphClear
5:15 AM28.4 °F17.6 °F64 %30.00 in10.0 miWest (270°)12.7 mphClear
5:35 AM28.4 °F17.6 °F64 %30.00 in10.0 miWest (270°)12.7 mphClear
5:55 AM30.2 °F15.8 °F55 %30.00 in10.0 miWest (280°)12.7 mphClear
6:15 AM26.6 °F15.8 °F64 %30.00 in10.0 miWest (260°)10.4 mphClear
6:35 AM26.6 °F15.8 °F64 %30.00 in10.0 miWest (270°)10.4 mphClear
6:55 AM26.6 °F15.8 °F64 %30.01 in10.0 miWest (270°)13.8 mphClear
7:15 AM28.4 °F15.8 °F59 %30.02 in10.0 miWest (270°)15.0 mphClear
7:35 AM28.4 °F15.8 °F59 %30.02 in10.0 miWest (270°)12.7 mphClear
7:55 AM28.4 °F17.6 °F64 %30.04 in10.0 miWest (280°)12.7 mphClear
8:15 AM28.4 °F17.6 °F64 %30.05 in10.0 miWest (270°)15.0 mphClear
8:35 AM28.4 °F17.6 °F64 %30.05 in10.0 miWest (270°)13.8 mphClear
8:55 AM32.0 °F17.6 °F55 %30.06 in10.0 miWest (270°)12.7 mphClear
9:15 AM33.8 °F19.4 °F56 %30.07 in10.0 miWest (270°)15.0 mphClear
9:35 AM35.6 °F19.4 °F52 %30.08 in10.0 miWest (280°)12.7 mphClear
9:55 AM39.2 °F19.4 °F45 %30.10 in10.0 miWest (280°)13.8 mphClear
10:15 AM42.8 °F21.2 °F42 %30.10 in10.0 miWest (280°)10.4 mphClear
10:35 AM44.6 °F21.2 °F39 %30.11 in10.0 miWest (280°)10.4 mphClear
10:55 AM48.2 °F21.2 °F34 %30.10 in10.0 miWest (280°)8.1 mphClear
11:15 AM50.0 °F21.2 °F32 %30.11 in10.0 miWest (270°)9.2 mphClear
11:35 AM51.8 °F21.2 °F30 %30.10 in10.0 miWSW (250°)8.1 mphClear
11:55 AM53.6 °F17.6 °F24 %30.11 in10.0 miNW (310°)10.4 mphClear
12:15 PM53.6 °F12.2 °F19 %30.09 in10.0 miNW (310°)10.4 mph17.3 mphClear
12:35 PM55.4 °F12.2 °F18 %30.10 in10.0 miNNW (340°)11.5 mph19.6 mphClear
12:55 PM55.4 °F14.0 °F20 %30.09 in10.0 miNNW (330°)13.8 mph17.3 mphClear
1:15 PM55.4 °F14.0 °F20 %30.10 in10.0 miNorth (350°)11.5 mph19.6 mphClear
1:35 PM53.6 °F19.4 °F26 %30.10 in10.0 miNE (40°)12.7 mph18.4 mphClear
1:55 PM53.6 °F19.4 °F26 %30.10 in10.0 miNNE (30°)15.0 mph23.0 mphClear
2:15 PM53.6 °F19.4 °F26 %30.10 in10.0 miNNE (20°)17.3 mph21.9 mphClear
2:35 PM51.8 °F19.4 °F28 %30.10 in10.0 miNNE (20°)18.4 mph26.5 mphClear
2:55 PM50.0 °F19.4 °F30 %30.12 in10.0 miNNE (30°)17.3 mph23.0 mphClear
3:15 PM50.0 °F19.4 °F30 %30.13 in10.0 miNNE (30°)16.1 mph21.9 mphClear
3:35 PM50.0 °F19.4 °F30 %30.14 in10.0 miNE (40°)16.1 mph20.7 mphClear
3:55 PM50.0 °F19.4 °F30 %30.15 in10.0 miNNE (30°)15.0 mph20.7 mphClear
4:15 PM48.2 °F19.4 °F32 %30.15 in10.0 miNNE (30°)11.5 mph19.6 mphClear
4:35 PM48.2 °F21.2 °F34 %30.16 in10.0 miENE (60°)13.8 mphClear
4:55 PM46.4 °F21.2 °F37 %30.18 in10.0 miENE (70°)11.5 mphClear
5:15 PM46.4 °F21.2 °F37 %30.18 in10.0 miENE (70°)12.7 mphClear
5:35 PM44.6 °F21.2 °F39 %30.19 in10.0 miEast (90°)13.8 mph17.3 mphClear
5:55 PM42.8 °F21.2 °F42 %30.20 in10.0 miEast (80°)15.0 mphClear
6:15 PM41.0 °F21.2 °F45 %30.20 in10.0 miEast (100°)11.5 mphClear
6:35 PM37.4 °F21.2 °F52 %30.20 in10.0 miEast (100°)10.4 mphClear
6:55 PM37.4 °F21.2 °F52 %30.21 in10.0 miEast (100°)10.4 mphClear
7:15 PM37.4 °F21.2 °F52 %30.21 in10.0 miEast (100°)10.4 mphClear
7:35 PM37.4 °F21.2 °F52 %30.21 in10.0 miEast (100°)11.5 mphClear
7:55 PM37.4 °F21.2 °F52 %30.21 in10.0 miEast (100°)11.5 mphClear
8:15 PM35.6 °F21.2 °F56 %30.21 in10.0 miESE (110°)11.5 mphClear
8:35 PM33.8 °F21.2 °F60 %30.21 in10.0 miESE (110°)11.5 mph16.1 mphClear
8:55 PM33.8 °F23.0 °F65 %30.21 in10.0 miESE (110°)11.5 mphClear
9:15 PM33.8 °F23.0 °F65 %30.21 in10.0 miESE (120°)11.5 mphClear
9:35 PM32.0 °F23.0 °F69 %30.21 in10.0 miESE (120°)11.5 mphClear
9:55 PM32.0 °F23.0 °F69 %30.21 in10.0 miESE (120°)10.4 mphClear
10:15 PM32.0 °F23.0 °F69 %30.20 in10.0 miESE (120°)13.8 mphClear
10:35 PM32.0 °F23.0 °F69 %30.21 in10.0 miSE (130°)11.5 mphClear
10:55 PM30.2 °F23.0 °F75 %30.22 in10.0 miSE (130°)11.5 mphClear
11:15 PM28.4 °F23.0 °F80 %30.22 in10.0 miSE (130°)12.7 mphClear
11:35 PM30.2 °F23.0 °F75 %30.21 in10.0 miSE (130°)13.8 mphClear
11:55 PM28.4 °F23.0 °F80 %30.22 in10.0 miSE (130°)15.0 mphClear
Hourly data recorded from KDUX, located miles away from Tascosa, Texas







STORIES FROM OUR PARTNERS